EW0415 Weather Reports


time (UTC)temp
C
wind
direction
speed
KPH
gust
KPH
rain 1hr
cm
rain 24hr
cm
rain mn
cm
humidity
%
barometer
mb
20260901110037 15 0 0.0 3.2 0.00 0.30 0.30 84 1017.9
20260901105515 15 0 0.0 6.4 0.00 0.30 0.30 84 1018.0
20260901105018 15 296 0.0 6.4 0.00 0.30 0.30 84 1017.9
20260901104538 15 296 1.6 6.4 0.00 0.30 0.30 84 1017.9
20260901104017 15 296 1.6 6.4 0.00 0.30 0.30 84 1018.0
20260901103518 15 297 0.0 6.4 0.00 0.30 0.30 84 1017.9
20260901103032 15 297 1.6 6.4 0.00 0.30 0.30 84 1017.9
20260901102516 15 306 1.6 6.4 0.00 0.30 0.30 84 1017.8
20260901102018 15 0 0.0 8.0 0.00 0.30 0.30 84 1017.8
20260901101535 15 311 1.6 14.5 0.00 0.30 0.30 84 1017.7
20260901101020 15 315 1.6 14.5 0.00 0.30 0.30 84 1017.7
20260901100516 15 0 0.0 1.6 0.00 0.30 0.30 84 1017.6
20260901100038 15 0 0.0 3.2 0.00 0.30 0.30 84 1017.5
20260901095516 15 0 0.0 4.8 0.00 0.30 0.30 84 1017.4
20260901095016 15 0 0.0 4.8 0.00 0.30 0.30 84 1017.4
20260901094534 15 34 1.6 4.8 0.00 0.30 0.30 83 1017.2
20260901094018 15 34 0.0 4.8 0.00 0.30 0.30 83 1017.1
20260901093517 15 0 0.0 4.8 0.00 0.30 0.30 83 1016.9
20260901093035 15 0 1.6 6.4 0.00 0.30 0.30 83 1016.8
20260901092522 15 35 0.0 6.4 0.00 0.30 0.30 83 1016.6
20260901092019 15 0 0.0 6.4 0.00 0.30 0.30 83 1016.3
20260901091535 15 38 1.6 6.4 0.00 0.30 0.30 83 1016.4
20260901091015 15 0 0.0 6.4 0.00 0.30 0.30 83 1016.2
20260901090522 15 38 0.0 6.4 0.00 0.30 0.30 83 1016.0
20260901090039 15 37 0.0 12.9 0.00 0.30 0.30 83 1016.1
20260901085515 15 37 1.6 12.9 0.00 0.30 0.30 83 1016.2
20260901085018 15 40 1.6 12.9 0.00 0.30 0.30 83 1016.1
20260901084533 15 67 1.6 8.0 0.00 0.30 0.30 82 1016.1
20260901084017 15 0 0.0 6.4 0.00 0.30 0.30 82 1016.1
20260901083517 15 76 1.6 6.4 0.00 0.30 0.30 82 1016.0
20260901083037 15 0 0.0 4.8 0.00 0.30 0.30 82 1016.0
20260901082517 15 76 1.6 6.4 0.00 0.30 0.30 82 1016.0
20260901082020 15 76 0.0 6.4 0.00 0.30 0.30 81 1016.1
20260901081533 15 76 1.6 6.4 0.00 0.30 0.30 81 1016.1
20260901081016 15 0 1.6 4.8 0.00 0.30 0.30 81 1016.2
20260901080518 15 77 1.6 4.8 0.00 0.30 0.30 81 1016.3
20260901080032 15 0 0.0 4.8 0.03 0.30 0.30 80 1016.2
20260901075516 15 0 1.6 4.8 0.05 0.30 0.30 80 1016.3
20260901075016 15 81 0.0 3.2 0.05 0.30 0.30 79 1016.4
20260901074535 15 0 0.0 11.3 0.08 0.30 0.30 79 1016.8
20260901074018 15 0 0.0 11.3 0.10 0.30 0.30 79 1016.1
20260901073519 15 57 3.2 9.7 0.13 0.30 0.30 78 1015.4
20260901073045 16 46 1.6 9.7 0.18 0.30 0.30 77 1015.8
20260901072519 16 57 3.2 11.3 0.23 0.30 0.30 76 1015.9
20260901072019 16 45 4.8 11.3 0.25 0.30 0.30 75 1015.9
20260901071534 16 73 3.2 8.0 0.28 0.30 0.30 74 1015.8
20260901071018 16 34 3.2 8.0 0.30 0.30 0.30 74 1016.4
20260901070515 16 119 1.6 6.4 0.28 0.28 0.28 73 1016.8
20260901070040 17 145 0.0 6.4 0.28 0.28 0.28 72 1017.2
20260901065519 17 242 1.6 6.4 0.25 0.25 0.25 71 1017.2
20260901065019 17 242 1.6 4.8 0.25 0.25 0.25 71 1017.4
20260901064542 17 0 0.0 3.2 0.20 0.20 0.20 70 1017.9
20260901064019 17 244 0.0 3.2 0.18 0.18 0.18 70 1017.9
20260901063518 17 0 0.0 1.6 0.15 0.15 0.15 69 1018.1
20260901063037 18 0 0.0 4.8 0.10 0.10 0.10 69 1018.3
20260901062519 18 0 0.0 4.8 0.08 0.08 0.08 69 1018.3
20260901062021 18 242 0.0 11.3 0.03 0.03 0.03 68 1018.1
20260901061536 18 242 1.6 11.3 0.00 0.00 0.00 67 1018.0
20260901061021 18 192 1.6 16.1 0.00 0.00 0.00 66 1018.1
20260901060521 19 198 3.2 16.1 0.00 0.00 0.00 65 1018.0
20260901060036 20 252 6.4 19.3 0.00 0.00 0.00 64 1018.1
20260901055516 20 261 6.4 19.3 0.00 0.00 0.00 62 1017.9
20260901055020 20 225 9.7 20.9 0.00 0.00 0.00 58 1017.7
20260901054537 20 296 9.7 20.9 0.00 0.00 0.00 57 1017.5
20260901054021 20 280 6.4 20.9 0.00 0.00 0.00 56 1017.4
20260901053515 21 262 3.2 9.7 0.00 0.00 0.00 56 1017.0
20260901053035 21 267 3.2 9.7 0.00 0.00 0.00 56 1017.0
20260901052515 21 286 1.6 8.0 0.00 0.00 0.00 55 1016.8
20260901052017 21 288 1.6 8.0 0.00 0.00 0.00 55 1016.8
20260901051537 21 0 3.2 9.7 0.00 0.00 0.00 55 1016.7
20260901051021 21 294 3.2 11.3 0.00 0.00 0.00 56 1016.7
20260901050520 21 289 3.2 12.9 0.00 0.00 0.00 55 1016.7
20260901050038 21 311 1.6 12.9 0.00 0.00 0.00 56 1016.7
20260901045520 21 288 3.2 8.0 0.00 0.00 0.00 57 1016.7
20260901045018 21 0 0.0 6.4 0.00 0.00 0.00 58 1016.6
20260901044544 21 0 1.6 14.5 0.00 0.00 0.00 57 1016.6
20260901044019 21 291 1.6 14.5 0.00 0.00 0.00 56 1016.8
20260901043517 21 291 4.8 14.5 0.00 0.00 0.00 55 1016.7
20260901043035 21 313 0.0 8.0 0.00 0.00 0.00 55 1016.6
20260901042520 21 0 1.6 9.7 0.00 0.00 0.00 54 1016.7
20260901042016 21 317 1.6 12.9 0.00 0.00 0.00 54 1016.6
20260901041536 21 314 4.8 14.5 0.00 0.00 0.00 54 1016.7
20260901041020 21 305 4.8 14.5 0.00 0.00 0.00 53 1016.6
20260901040519 21 328 4.8 12.9 0.00 0.00 0.00 53 1016.6
20260901040037 21 0 3.2 12.9 0.00 0.00 0.00 53 1016.8
20260901035519 21 321 3.2 20.9 0.00 0.00 0.00 53 1016.8
20260901035018 21 324 4.8 20.9 0.00 0.00 0.00 53 1017.0
20260901034534 21 337 4.8 20.9 0.00 0.00 0.00 52 1016.9
20260901034016 21 304 3.2 16.1 0.00 0.00 0.00 52 1016.9
20260901033518 21 336 3.2 16.1 0.00 0.00 0.00 52 1017.1
20260901033036 21 345 6.4 16.1 0.00 0.00 0.00 51 1017.1
20260901032518 21 329 3.2 17.7 0.00 0.00 0.00 52 1017.2
20260901032018 21 15 3.2 17.7 0.00 0.00 0.00 51 1017.3
20260901031535 21 63 6.4 22.5 0.00 0.00 0.00 50 1017.8
20260901031016 22 335 4.8 22.5 0.00 0.00 0.00 49 1017.6
20260901030518 22 311 3.2 16.1 0.00 0.00 0.00 49 1018.0
20260901030042 22 303 4.8 16.1 0.00 0.00 0.00 49 1018.0
20260901025518 22 10 6.4 17.7 0.00 0.00 0.00 49 1017.9
20260901025016 22 298 4.8 19.3 0.00 0.00 0.00 50 1017.9
20260901024537 22 24 6.4 19.3 0.00 0.00 0.00 49 1017.9
20260901024020 21 346 8.0 16.1 0.00 0.00 0.00 50 1017.9
20260901023518 21 15 6.4 16.1 0.00 0.00 0.00 50 1018.0
20260901023037 21 94 4.8 14.5 0.00 0.00 0.00 51 1018.0
20260901022515 20 345 4.8 14.5 0.00 0.00 0.00 53 1018.4
20260901022020 20 296 4.8 14.5 0.00 0.00 0.00 53 1018.5
20260901021531 20 332 4.8 12.9 0.00 0.00 0.00 54 1018.7
20260901021019 20 316 3.2 12.9 0.00 0.00 0.00 54 1018.7
20260901020517 19 327 3.2 12.9 0.00 0.00 0.00 54 1018.7
20260901020035 19 333 3.2 9.7 0.00 0.00 0.00 55 1018.9
20260901015518 19 306 3.2 12.9 0.00 0.00 0.00 55 1018.8
20260901015018 19 323 4.8 19.3 0.00 0.00 0.00 55 1018.9
20260901014539 19 0 3.2 19.3 0.00 0.00 0.00 55 1018.8
20260901014015 19 341 3.2 19.3 0.00 0.00 0.00 56 1018.8
20260901013515 19 334 4.8 16.1 0.00 0.00 0.00 56 1018.6
20260901013036 19 11 4.8 17.7 0.00 0.00 0.00 56 1018.6
20260901012526 19 12 6.4 17.7 0.00 0.00 0.00 56 1019.0
20260901012023 19 28 4.8 17.7 0.00 0.00 0.00 57 1019.3
20260901011534 19 338 3.2 17.7 0.00 0.00 0.00 54 1019.3
20260901011017 19 330 3.2 12.9 0.00 0.00 0.00 54 1019.3
20260901010516 19 331 4.8 17.7 0.00 0.00 0.00 53 1019.3
20260901010035 19 97 6.4 17.7 0.00 0.00 0.00 54 1019.2
20260901005520 19 319 4.8 19.3 0.00 0.00 0.00 53 1019.4
20260901005019 19 333 3.2 19.3 0.00 0.00 0.00 53 1019.4
20260901004540 19 321 3.2 19.3 0.00 0.00 0.00 53 1019.4
20260901004018 19 294 4.8 19.3 0.00 0.00 0.00 53 1019.4
20260901003516 20 324 6.4 17.7 0.00 0.00 0.00 52 1019.5
20260901003038 20 332 6.4 17.7 0.00 0.00 0.00 51 1019.4
20260901002515 20 68 4.8 14.5 0.00 0.00 0.00 52 1019.4
20260901002015 20 360 3.2 19.3 0.00 0.00 0.00 53 1019.4
20260901001533 20 323 3.2 19.3 0.00 0.00 0.00 52 1019.4
20260901001021 20 40 4.8 14.5 0.00 0.00 0.00 52 1019.5
20260901000521 20 340 4.8 14.5 0.00 0.00 0.00 52 1019.5
20260901000034 19 325 3.2 14.5 0.00 0.00 0.00 52 1019.7
20260831235516 19 28 6.4 16.1 0.00 0.00 0.00 53 1019.8
20260831235016 18 41 4.8 16.1 0.00 0.00 0.00 54 1019.9
20260831234533 18 350 4.8 16.1 0.00 0.00 0.00 54 1019.7
20260831234018 18 352 4.8 17.7 0.00 0.00 0.00 54 1019.8
20260831233515 18 259 4.8 17.7 0.00 0.00 0.00 54 1019.9
20260831233032 18 52 4.8 12.9 0.00 0.00 0.00 54 1019.9
20260831232515 18 152 4.8 12.9 0.00 0.00 0.00 53 1019.8
20260831232015 18 21 3.2 12.9 0.00 0.00 0.00 53 1019.9
20260831231534 18 9 3.2 17.7 0.00 0.00 0.00 53 1019.7
20260831231020 17 360 4.8 17.7 0.00 0.00 0.00 53 1019.9
20260831230519 17 238 6.4 17.7 0.00 0.00 0.00 53 1019.8
20260831230037 17 319 4.8 16.1 0.00 0.00 0.00 54 1019.9
20260831225521 17 65 6.4 20.9 0.00 0.00 0.00 54 1019.8
20260831225016 17 346 6.4 20.9 0.00 0.00 0.00 54 1019.8
20260831224533 17 360 8.0 17.7 0.00 0.00 0.00 54 1019.7
20260831224018 17 360 4.8 17.7 0.00 0.00 0.00 55 1019.6
20260831223519 17 28 4.8 17.7 0.00 0.00 0.00 55 1019.6
20260831223035 17 34 6.4 19.3 0.00 0.00 0.00 55 1019.8
20260831222517 17 11 8.0 22.5 0.00 0.00 0.00 55 1020.0
20260831222016 17 340 6.4 22.5 0.00 0.00 0.00 56 1020.1
20260831221536 16 11 4.8 14.5 0.00 0.00 0.00 56 1020.1
20260831221015 16 330 3.2 12.9 0.00 0.00 0.00 57 1020.1
20260831220515 16 342 4.8 14.5 0.00 0.00 0.00 58 1020.2
20260831220035 16 5 4.8 14.5 0.00 0.00 0.00 59 1020.2
20260831215516 15 346 3.2 14.5 0.00 0.00 0.00 60 1020.2
20260831215022 15 355 3.2 14.5 0.00 0.00 0.00 60 1020.1
20260831214559 15 343 3.2 12.9 0.00 0.00 0.00 60 1020.2
20260831214019 15 360 3.2 12.9 0.00 0.00 0.00 60 1020.0
20260831213520 15 355 3.2 12.9 0.00 0.00 0.00 60 1020.1
20260831213033 15 355 4.8 12.9 0.00 0.00 0.00 61 1020.0
20260831212519 15 349 3.2 12.9 0.00 0.00 0.00 61 1020.2
20260831212016 15 345 3.2 12.9 0.00 0.00 0.00 61 1020.1
20260831211534 14 347 4.8 12.9 0.00 0.00 0.00 61 1020.0
20260831211018 14 9 3.2 11.3 0.00 0.00 0.00 61 1020.0
20260831210515 14 5 3.2 11.3 0.00 0.00 0.00 61 1020.1
20260831210031 14 9 3.2 11.3 0.00 0.00 0.00 61 1020.1
20260831205515 14 360 3.2 11.3 0.00 0.00 0.00 62 1020.1
20260831205021 14 355 3.2 11.3 0.00 0.00 0.00 62 1020.1
20260831204533 14 9 1.6 8.0 0.00 0.00 0.00 62 1020.2
20260831204018 14 360 1.6 12.9 0.00 0.00 0.00 62 1020.3
20260831203519 14 0 3.2 12.9 0.00 0.00 0.00 62 1020.3
20260831203031 14 355 1.6 8.0 0.00 0.00 0.00 62 1020.3
20260831202518 14 360 3.2 8.0 0.00 0.00 0.00 61 1020.3
20260831202022 14 360 1.6 8.0 0.00 0.00 0.00 61 1020.3
20260831201537 14 360 1.6 6.4 0.00 0.00 0.00 61 1020.3
20260831201016 14 360 1.6 6.4 0.00 0.00 0.00 61 1020.4
20260831200517 14 360 1.6 8.0 0.00 0.00 0.00 61 1020.4
20260831200041 14 360 1.6 8.0 0.00 0.00 0.00 60 1020.5
20260831195519 14 355 1.6 8.0 0.00 0.00 0.00 60 1020.5
20260831195019 15 355 3.2 9.7 0.00 0.00 0.00 60 1020.5
20260831194534 15 355 4.8 12.9 0.00 0.00 0.00 60 1020.6
20260831194017 15 9 3.2 12.9 0.00 0.00 0.00 60 1020.5
20260831193518 15 9 3.2 14.5 0.00 0.00 0.00 60 1020.5
20260831193036 15 355 3.2 14.5 0.00 0.00 0.00 60 1020.6
20260831192515 14 355 3.2 12.9 0.00 0.00 0.00 60 1020.6
20260831192017 15 352 3.2 8.0 0.00 0.00 0.00 60 1020.6
20260831191535 15 348 3.2 9.7 0.00 0.00 0.00 60 1020.7
20260831191019 15 348 4.8 12.9 0.00 0.00 0.00 59 1020.6
20260831190519 15 342 3.2 12.9 0.00 0.00 0.00 59 1020.7
20260831190053 15 340 3.2 12.9 0.00 0.00 0.00 59 1020.7
20260831185516 15 334 1.6 16.1 0.00 0.00 0.00 59 1020.9
20260831185016 15 340 3.2 16.1 0.00 0.00 0.00 59 1020.9
20260831184532 15 333 4.8 16.1 0.00 0.00 0.00 58 1020.9
20260831184015 15 346 3.2 16.1 0.00 0.00 0.00 58 1020.9
20260831183515 15 15 3.2 16.1 0.00 0.00 0.00 58 1021.0
20260831183049 15 350 6.4 12.9 0.00 0.00 0.00 58 1021.2
20260831182522 15 343 3.2 12.9 0.00 0.00 0.00 58 1021.3
20260831182019 15 9 4.8 11.3 0.00 0.00 0.00 58 1021.5
20260831181535 15 9 3.2 12.9 0.00 0.00 0.00 58 1021.5
20260831181017 15 355 3.2 12.9 0.00 0.00 0.00 58 1021.6
20260831180517 15 352 4.8 12.9 0.00 0.00 0.00 57 1021.6
20260831180035 15 355 3.2 12.9 0.00 0.00 0.00 57 1021.7
20260831175517 15 13 6.4 12.9 0.00 0.00 0.00 57 1021.7
20260831175017 15 9 3.2 14.5 0.00 0.00 0.00 57 1021.6
20260831174531 15 11 4.8 14.5 0.00 0.00 0.00 57 1021.8
20260831174018 15 17 3.2 12.9 0.00 0.00 0.00 57 1021.8
20260831173515 15 9 4.8 12.9 0.00 0.00 0.00 57 1021.9
20260831173034 15 352 3.2 12.9 0.00 0.00 0.00 56 1022.0
20260831172520 15 348 4.8 11.3 0.00 0.00 0.00 56 1022.1
20260831172019 15 344 3.2 16.1 0.00 0.00 0.00 56 1022.2
20260831171537 15 23 3.2 16.1 0.00 0.00 0.00 56 1022.2
20260831171020 15 5 4.8 12.9 0.00 0.00 0.00 56 1022.3
20260831170517 15 0 3.2 12.9 0.00 0.00 0.00 56 1022.2
20260831170035 15 9 3.2 14.5 0.00 0.00 0.00 56 1022.5
20260831165515 15 11 3.2 14.5 0.00 0.00 0.00 56 1022.3
20260831165015 15 12 3.2 12.9 0.00 0.00 0.00 56 1022.3
20260831164533 15 14 4.8 12.9 0.00 0.00 0.00 56 1022.6
20260831164020 15 21 3.2 12.9 0.00 0.00 0.00 57 1022.6
20260831163521 15 24 1.6 8.0 0.00 0.00 0.00 57 1022.6
20260831163041 15 24 1.6 12.9 0.00 0.00 0.00 57 1022.5
20260831162519 15 26 3.2 12.9 0.00 0.00 0.00 58 1022.5
20260831162019 15 28 1.6 12.9 0.00 0.00 0.00 58 1022.8
20260831161535 15 36 1.6 8.0 0.00 0.00 0.00 58 1022.8
20260831161017 15 36 1.6 9.7 0.00 0.00 0.00 58 1022.9
20260831160516 15 37 3.2 9.7 0.00 0.00 0.00 58 1023.0
20260831160043 15 38 3.2 8.0 0.00 0.00 0.00 58 1023.1
20260831155519 15 0 0.0 6.4 0.00 0.00 0.00 58 1023.2
20260831155019 15 38 1.6 6.4 0.00 0.00 0.00 58 1023.2
20260831154612 15 38 1.6 6.4 0.00 0.00 0.00 58 1023.3
20260831154015 15 38 1.6 6.4 0.00 0.00 0.00 58 1023.4
20260831153516 15 38 1.6 4.8 0.00 0.00 0.00 58 1023.5
20260831153034 15 38 0.0 9.7 0.00 0.00 0.00 58 1023.6
20260831152521 15 38 1.6 9.7 0.00 0.00 0.00 58 1023.7
20260831152015 15 38 1.6 9.7 0.00 0.00 0.00 59 1023.7
20260831151537 14 44 1.6 6.4 0.00 0.00 0.00 59 1023.7
20260831151018 14 44 1.6 6.4 0.00 0.00 0.00 59 1023.6
20260831150521 14 44 1.6 6.4 0.00 0.00 0.00 60 1023.7
20260831150033 13 44 1.6 6.4 0.00 0.00 0.00 60 1023.9
20260831145520 13 0 1.6 8.0 0.00 0.00 0.00 61 1023.9
20260831145018 13 0 1.6 8.0 0.00 0.00 0.00 62 1023.9
20260831144533 13 46 1.6 6.4 0.00 0.00 0.00 63 1024.0
20260831144016 13 0 0.0 4.8 0.00 0.00 0.00 63 1024.0
20260831143516 12 46 0.0 3.2 0.00 0.00 0.00 63 1024.1
20260831143032 12 46 0.0 4.8 0.00 0.00 0.00 64 1024.3
20260831142517 12 0 0.0 4.8 0.00 0.00 0.00 64 1024.2
20260831142021 12 46 1.6 4.8 0.00 0.00 0.00 64 1024.3
20260831141535 12 46 0.0 4.8 0.00 0.00 0.00 63 1024.5
20260831141015 12 46 0.0 4.8 0.00 0.00 0.00 63 1024.4
20260831140519 12 0 0.0 3.2 0.00 0.00 0.00 62 1024.5
20260831140039 12 0 0.0 0.0 0.00 0.00 0.00 61 1024.7
20260831135516 12 0 0.0 0.0 0.00 0.00 0.00 60 1024.7
20260831135023 12 0 0.0 0.0 0.00 0.00 0.00 59 1024.8
20260831134533 13 0 0.0 0.0 0.00 0.00 0.00 59 1024.8
20260831134016 13 0 0.0 0.0 0.00 0.00 0.00 58 1025.1
20260831133518 13 0 0.0 0.0 0.00 0.00 0.00 57 1025.2
20260831133035 13 0 0.0 0.0 0.00 0.00 0.00 57 1025.3
20260831132515 14 0 0.0 0.0 0.00 0.00 0.00 56 1025.5
20260831132016 14 0 0.0 0.0 0.00 0.00 0.00 55 1025.5
20260831131541 14 0 0.0 0.0 0.00 0.00 0.00 55 1025.5
20260831131020 15 0 0.0 0.0 0.00 0.00 0.00 54 1025.6
20260831130519 15 0 0.0 3.2 0.00 0.00 0.00 55 1025.5
20260831130038 15 0 0.0 3.2 0.00 0.00 0.00 55 1025.5
20260831125520 15 46 0.0 3.2 0.00 0.00 0.00 55 1025.5
20260831125019 15 0 0.0 3.2 0.00 0.00 0.00 54 1025.4
20260831124544 15 0 0.0 4.8 0.00 0.00 0.00 54 1025.4
20260831124018 15 46 0.0 4.8 0.00 0.00 0.00 54 1025.5
20260831123518 15 46 1.6 6.4 0.00 0.00 0.00 54 1025.6
20260831123034 15 46 1.6 6.4 0.00 0.00 0.00 54 1025.7
20260831122518 15 46 3.2 6.4 0.00 0.00 0.00 54 1025.7
20260831122017 15 0 0.0 6.4 0.00 0.00 0.00 54 1025.6
20260831121535 15 46 1.6 6.4 0.00 0.00 0.00 54 1025.5
20260831121019 16 0 1.6 9.7 0.00 0.00 0.00 54 1025.4
20260831120519 16 0 1.6 9.7 0.00 0.00 0.00 54 1025.3
20260831120051 16 46 1.6 9.7 0.00 0.00 0.00 54 1025.5
20260831115524 16 49 1.6 8.0 0.00 0.00 0.00 54 1025.6
20260831115016 16 0 1.6 8.0 0.00 0.00 0.00 53 1025.6
20260831114534 16 50 3.2 9.7 0.00 0.00 0.00 53 1025.5
20260831114018 16 90 1.6 9.7 0.00 0.00 0.00 53 1025.5
20260831113516 16 88 3.2 9.7 0.00 0.00 0.00 53 1025.4
20260831113032 16 92 1.6 9.7 0.00 0.00 0.00 53 1025.3
20260831112515 16 92 1.6 11.3 0.00 0.00 0.00 53 1025.5
20260831112014 16 94 1.6 11.3 0.00 0.00 0.00 53 1025.6
20260831111535 16 92 1.6 11.3 0.00 0.00 0.00 53 1025.6
20260831111018 16 95 3.2 9.7 0.00 0.00 0.00 53 1025.6
20260831110518 16 96 1.6 9.7 0.00 0.00 0.00 53 1025.7